�������l�o���
Date,Time,MP-1(��Sv/h),MP-2(��Sv/h),MP-3(��Sv/h),MP-4(��Sv/h),MP-5(��Sv/h),MP-6(��Sv/h),MP-7(��Sv/h),MP-8(��Sv/h),����,����(m/s),���J
2016/12/27,00:00,1.102,1.824,1.189,2.075,1.431,0.574,1.037,0.962,��,1.4,��
2016/12/27,00:10,1.102,1.825,1.191,2.075,1.428,0.571,1.037,0.962,-,CALM,��
2016/12/27,00:20,1.101,1.824,1.189,2.076,1.431,0.569,1.037,0.963,-,CALM,��
2016/12/27,00:30,1.102,1.823,1.191,2.073,1.432,0.571,1.038,0.962,�쐼,0.9,��
2016/12/27,00:40,1.104,1.822,1.190,2.074,1.431,0.571,1.035,0.962,��쐼,1.5,��
2016/12/27,00:50,1.106,1.825,1.189,2.075,1.430,0.571,1.038,0.962,��쓌,1.1,��
2016/12/27,01:00,1.104,1.823,1.191,2.078,1.434,0.571,1.036,0.963,�쓌,2.6,��
2016/12/27,01:10,1.103,1.822,1.188,2.077,1.432,0.569,1.039,0.962,��쓌,3.0,��
2016/12/27,01:20,1.105,1.824,1.188,2.077,1.432,0.572,1.038,0.962,��쓌,3.2,��
2016/12/27,01:30,1.101,1.825,1.188,2.074,1.431,0.570,1.039,0.964,��쓌,3.9,��
2016/12/27,01:40,1.103,1.821,1.190,2.075,1.431,0.571,1.037,0.963,��쓌,4.3,��
2016/12/27,01:50,1.104,1.828,1.192,2.077,1.430,0.571,1.038,0.962,��쐼,4.3,��
2016/12/27,02:00,1.105,1.822,1.191,2.076,1.429,0.572,1.039,0.963,��쐼,4.8,��
2016/12/27,02:10,1.106,1.824,1.190,2.073,1.433,0.572,1.039,0.963,��쐼,5.3,��
2016/12/27,02:20,1.106,1.826,1.192,2.077,1.430,0.573,1.040,0.964,��쐼,4.8,��
2016/12/27,02:30,1.105,1.825,1.192,2.075,1.432,0.574,1.041,0.963,��,3.3,��
2016/12/27,02:40,1.105,1.826,1.189,2.074,1.431,0.571,1.038,0.962,��,3.4,��
2016/12/27,02:50,1.106,1.824,1.192,2.073,1.431,0.572,1.039,0.963,��,2.9,��
2016/12/27,03:00,1.105,1.826,1.190,2.076,1.431,0.572,1.040,0.963,��,3.3,��
2016/12/27,03:10,1.106,1.824,1.193,2.078,1.429,0.572,1.039,0.963,��,3.7,��
2016/12/27,03:20,1.106,1.822,1.193,2.077,1.431,0.573,1.040,0.963,��,5.2,��
2016/12/27,03:30,1.109,1.826,1.193,2.077,1.433,0.574,1.040,0.964,��쐼,4.2,��
2016/12/27,03:40,1.109,1.825,1.192,2.078,1.432,0.573,1.041,0.964,��쐼,3.9,��
2016/12/27,03:50,1.108,1.826,1.193,2.076,1.432,0.573,1.040,0.964,��쐼,4.0,��
2016/12/27,04:00,1.109,1.825,1.192,2.079,1.433,0.573,1.040,0.963,��쐼,4.4,��
2016/12/27,04:10,1.110,1.828,1.196,2.077,1.432,0.574,1.038,0.964,��,3.1,��
2016/12/27,04:20,1.108,1.825,1.193,2.076,1.432,0.573,1.042,0.963,��,3.3,��
2016/12/27,04:30,1.106,1.826,1.195,2.080,1.434,0.574,1.040,0.966,�쐼,2.0,�L
2016/12/27,04:40,1.106,1.828,1.193,2.078,1.436,0.573,1.038,0.965,�쐼,2.2,��
2016/12/27,04:50,1.106,1.827,1.194,2.082,1.434,0.574,1.040,0.964,�k��,1.7,��
2016/12/27,05:00,1.106,1.829,1.191,2.081,1.437,0.572,1.041,0.963,�k�k��,4.8,��
2016/12/27,05:10,1.105,1.824,1.192,2.078,1.431,0.572,1.039,0.963,�k�k��,5.8,��
2016/12/27,05:20,1.106,1.828,1.192,2.082,1.433,0.570,1.040,0.964,�k�k��,6.1,��
2016/12/27,05:30,1.107,1.826,1.191,2.078,1.435,0.571,1.036,0.962,�k�k��,6.3,��
2016/12/27,05:40,1.106,1.828,1.192,2.079,1.436,0.572,1.037,0.964,�k�k��,5.7,��
2016/12/27,05:50,1.107,1.826,1.191,2.079,1.436,0.571,1.039,0.963,�k�k��,6.6,��
2016/12/27,06:00,1.105,1.827,1.191,2.078,1.433,0.572,1.039,0.964,�k�k��,6.8,��
2016/12/27,06:10,1.105,1.824,1.191,2.077,1.435,0.575,1.037,0.964,�k�k��,8.1,��
2016/12/27,06:20,1.106,1.825,1.191,2.080,1.434,0.573,1.041,0.966,�k�k��,8.1,��
2016/12/27,06:30,1.104,1.825,1.192,2.079,1.430,0.571,1.040,0.963,�k�k��,6.9,��
2016/12/27,06:40,1.104,1.823,1.190,2.077,1.428,0.572,1.038,0.964,�k�k��,7.6,��
2016/12/27,06:50,1.105,1.825,1.191,2.075,1.429,0.572,1.038,0.963,�k,6.9,��
2016/12/27,07:00,1.104,1.824,1.187,2.075,1.433,0.571,1.040,0.964,�k�k��,7.4,��
2016/12/27,07:10,1.103,1.825,1.192,2.076,1.430,0.571,1.041,0.963,�k�k��,7.0,��
2016/12/27,07:20,1.104,1.823,1.190,2.077,1.430,0.572,1.040,0.964,�k�k��,7.2,��
2016/12/27,07:30,1.103,1.822,1.193,2.076,1.430,0.572,1.038,0.964,�k�k��,6.4,��
2016/12/27,07:40,1.102,1.823,1.189,2.077,1.433,0.570,1.040,0.961,�k�k��,5.9,��
2016/12/27,07:50,1.100,1.824,1.192,2.078,1.432,0.570,1.038,0.963,�k�k��,6.3,��
2016/12/27,08:00,1.098,1.822,1.185,2.076,1.429,0.570,1.040,0.962,�k�k��,6.8,��
2016/12/27,08:10,1.103,1.823,1.180,2.080,1.431,0.574,1.041,0.962,�k,6.8,��
2016/12/27,08:20,1.103,1.822,1.180,2.077,1.431,0.571,1.039,0.964,�k,6.5,��
2016/12/27,08:30,1.101,1.825,1.192,2.079,1.429,0.571,1.040,0.962,�k,5.0,��
2016/12/27,08:40,1.101,1.823,1.196,2.078,1.429,0.569,1.039,0.965,�k,5.9,��
2016/12/27,08:50,1.104,1.824,1.196,2.078,1.432,0.571,1.041,0.963,�k,6.4,��
2016/12/27,09:00,1.104,1.826,1.195,2.078,1.431,0.572,1.039,0.963,�k,6.5,��
2016/12/27,09:10,1.105,1.821,1.193,2.079,1.433,0.570,1.040,0.962,�k,5.4,��
2016/12/27,09:20,1.102,1.822,1.195,2.076,1.432,0.572,1.039,0.964,�k,5.8,��
2016/12/27,09:30,1.102,1.822,1.193,2.078,1.432,0.571,1.040,0.966,�k,4.5,��
2016/12/27,09:40,1.104,1.824,1.193,2.077,1.429,0.572,1.039,0.962,�k,4.6,��
2016/12/27,09:50,1.103,1.820,1.195,2.077,1.429,0.574,1.037,0.963,�k,4.5,��
2016/12/27,10:00,1.102,1.827,1.197,2.077,1.432,0.571,1.039,0.965,�k,4.2,��
2016/12/27,10:10,1.102,1.831,1.193,2.077,1.430,0.571,1.039,0.962,�k,5.2,��
2016/12/27,10:20,1.103,1.825,1.195,2.078,1.426,0.572,1.039,0.963,�k,5.8,�L
2016/12/27,10:30,1.104,1.825,1.196,2.081,1.425,0.572,1.039,0.963,�k,5.1,��
2016/12/27,10:40,1.102,1.822,1.198,2.079,-,0.571,1.039,0.964,�k,4.9,��
2016/12/27,10:50,1.103,1.822,1.193,2.078,-,0.572,1.041,0.963,�k,5.2,��
2016/12/27,11:00,1.104,1.824,1.198,2.081,-,0.573,1.039,0.965,�k�k��,4.7,��
2016/12/27,11:10,1.104,1.825,1.197,2.079,-,0.573,1.039,0.965,�k,4.0,��
2016/12/27,11:20,1.105,1.824,1.196,2.078,-,0.571,1.041,0.966,�k�k��,4.2,��
2016/12/27,11:30,1.107,1.822,1.195,2.079,-,0.573,1.041,0.965,�k,6.1,��
2016/12/27,11:40,1.104,1.821,1.194,2.079,-,0.574,1.040,0.966,�k�k��,4.7,��
2016/12/27,11:50,1.104,1.822,1.197,2.079,-,0.573,1.039,0.964,�k�k��,4.9,��
2016/12/27,12:00,1.104,1.822,1.198,2.080,-,0.572,1.039,0.964,�k�k��,6.5,��
2016/12/27,12:10,1.104,1.822,1.198,2.081,-,0.572,1.037,0.965,�k,7.3,��
2016/12/27,12:20,1.105,1.822,1.196,2.082,-,0.572,1.038,0.966,�k,7.6,��
2016/12/27,12:30,1.106,1.823,1.200,2.079,-,0.572,1.038,0.963,�k,8.0,��
2016/12/27,12:40,1.108,1.823,1.197,2.081,-,0.572,1.038,0.964,�k�k��,9.9,��
2016/12/27,12:50,1.106,1.824,1.199,2.080,-,0.572,1.040,0.965,�k,7.7,��
2016/12/27,13:00,1.103,1.825,1.199,2.076,-,0.573,1.039,0.965,�k,8.0,��
2016/12/27,13:10,1.107,1.825,1.200,2.078,-,0.571,1.037,0.965,�k�k��,8.4,��
2016/12/27,13:20,1.105,1.824,1.198,2.082,-,0.572,1.037,0.964,�k,9.6,��
2016/12/27,13:30,1.107,1.823,1.200,2.078,-,0.573,1.037,0.966,�k,10.2,��
2016/12/27,13:40,1.104,1.820,1.200,2.083,-,0.573,1.037,0.963,�k,10.5,��
2016/12/27,13:50,1.106,1.824,1.196,2.081,-,0.572,1.036,0.965,�k,9.7,��
2016/12/27,14:00,1.106,1.827,1.197,2.081,-,0.573,1.037,0.964,�k,10.9,��
2016/12/27,14:10,1.102,1.821,1.198,2.081,-,0.572,1.035,0.965,�k,9.6,��
2016/12/27,14:20,1.104,1.823,1.200,2.079,-,0.571,1.037,0.964,�k,9.4,��
2016/12/27,14:30,1.105,1.825,1.199,2.080,-,0.573,1.037,0.967,�k,8.6,��
2016/12/27,14:40,1.104,1.822,1.198,2.081,-,0.573,1.038,0.965,�k,8.1,��
2016/12/27,14:50,1.109,1.820,1.199,2.083,-,0.573,1.038,0.964,�k,8.8,��
2016/12/27,15:00,1.107,1.823,1.199,2.079,-,0.572,1.038,0.965,�k,10.7,��
2016/12/27,15:10,1.106,1.824,1.198,2.080,-,0.573,1.040,0.963,�k,9.4,��
2016/12/27,15:20,1.105,1.826,1.198,2.082,-,0.571,1.038,0.964,�k,8.9,��
2016/12/27,15:30,1.106,1.825,1.199,2.079,-,0.571,1.038,0.964,�k,8.3,��
2016/12/27,15:40,1.105,1.827,1.199,2.079,1.433,0.572,1.037,0.967,�k,8.0,��
2016/12/27,15:50,1.105,1.827,1.200,2.081,1.431,0.572,1.038,0.965,�k,8.9,��
2016/12/27,16:00,1.107,1.823,1.198,2.078,1.435,0.573,1.039,0.963,�k,8.3,��
2016/12/27,16:10,1.105,1.823,1.200,2.078,1.433,0.571,1.039,0.965,�k,7.7,��
2016/12/27,16:20,1.107,1.826,1.200,2.080,1.434,0.572,1.038,0.965,�k�k��,10.5,��
2016/12/27,16:30,1.105,1.827,1.197,2.083,1.435,0.574,1.040,0.964,�k�k��,8.6,��
2016/12/27,16:40,1.105,1.829,1.197,2.081,1.435,0.572,1.038,0.965,�k,7.7,��
2016/12/27,16:50,1.107,1.829,1.197,2.081,1.437,0.574,1.038,0.965,�k,5.5,��
2016/12/27,17:00,1.108,1.825,1.200,2.083,1.434,0.572,1.036,0.963,�k,4.6,��
2016/12/27,17:10,1.105,1.827,1.199,2.080,1.434,0.571,1.039,0.964,�k,7.0,��
2016/12/27,17:20,1.104,1.828,1.200,2.083,1.435,0.571,1.040,0.964,�k,7.4,��
2016/12/27,17:30,1.105,1.829,1.197,2.080,1.436,0.573,1.039,0.964,�k,6.6,��
2016/12/27,17:40,1.104,1.824,1.197,2.081,1.435,0.572,1.040,0.964,�k,6.9,��
2016/12/27,17:50,1.104,1.825,1.198,2.082,1.434,0.571,1.037,0.965,�k,7.2,��
2016/12/27,18:00,1.102,1.829,1.195,2.082,1.436,0.571,1.039,0.963,�k,6.6,��
2016/12/27,18:10,1.105,1.826,1.198,2.082,1.434,0.569,1.040,0.963,�k,8.0,��
2016/12/27,18:20,1.103,1.827,1.198,2.080,1.435,0.570,1.039,0.965,�k,10.2,��
2016/12/27,18:30,1.102,1.828,1.198,2.082,1.433,0.572,1.039,0.962,�k,10.0,�L
2016/12/27,18:40,1.104,1.825,1.197,2.080,1.435,0.571,1.037,0.963,�k,10.3,��
2016/12/27,18:50,1.103,1.829,1.197,2.083,1.433,0.572,1.037,0.963,�k,9.7,��
2016/12/27,19:00,1.102,1.826,1.199,2.080,1.432,0.572,1.038,0.963,�k,9.5,��
2016/12/27,19:10,1.104,1.828,1.197,2.082,1.435,0.570,1.041,0.964,�k,9.6,��
2016/12/27,19:20,1.102,1.824,1.196,2.080,1.435,0.571,1.039,0.964,�k,10.6,��
2016/12/27,19:30,1.104,1.826,1.197,2.080,1.436,0.571,1.039,0.965,�k�k��,11.8,��
2016/12/27,19:40,1.102,1.826,1.197,2.080,1.434,0.570,1.039,0.964,�k,11.3,��
2016/12/27,19:50,1.102,1.827,1.196,2.079,1.434,0.571,1.039,0.964,�k,9.9,��
2016/12/27,20:00,1.100,1.828,1.195,2.081,1.435,0.569,1.037,0.962,�k,10.4,��
2016/12/27,20:10,1.101,1.824,1.194,2.080,1.435,0.569,1.040,0.965,�k,11.6,��
2016/12/27,20:20,1.099,1.824,1.196,2.082,1.436,0.570,1.039,0.962,�k,10.2,��
2016/12/27,20:30,1.099,1.824,1.196,2.078,1.433,0.571,1.039,0.963,�k,9.7,��
2016/12/27,20:40,1.101,1.827,1.196,2.080,1.433,0.569,1.039,0.963,�k,7.7,��
2016/12/27,20:50,1.101,1.826,1.196,2.080,1.434,0.571,1.039,0.963,�k�k��,8.7,��
2016/12/27,21:00,1.102,1.828,1.196,2.078,1.433,0.570,1.039,0.965,�k,9.2,��
2016/12/27,21:10,1.104,1.825,1.197,2.080,1.432,0.569,1.039,0.962,�k,9.6,��
2016/12/27,21:20,1.103,1.825,1.194,2.085,1.433,0.570,1.039,0.963,�k,9.0,��
2016/12/27,21:30,1.101,1.825,1.195,2.080,1.431,0.570,1.039,0.962,�k�k��,8.0,��
2016/12/27,21:40,1.100,1.824,1.198,2.080,1.431,0.569,1.039,0.964,�k,7.7,��
2016/12/27,21:50,1.100,1.825,1.196,2.082,1.435,0.569,1.040,0.961,�k�k��,7.4,��
2016/12/27,22:00,1.101,1.826,1.197,2.078,1.432,0.569,1.039,0.961,�k�k��,7.1,��
2016/12/27,22:10,1.099,1.828,1.193,2.079,1.432,0.570,1.040,0.962,�k�k��,7.3,��
2016/12/27,22:20,1.101,1.823,1.195,2.078,1.433,0.568,1.037,0.962,�k,6.4,��
2016/12/27,22:30,1.100,1.825,1.195,2.080,1.433,0.570,1.038,0.964,�k,8.0,��
2016/12/27,22:40,1.100,1.826,1.196,2.079,1.434,0.569,1.039,0.962,�k�k��,7.5,��
2016/12/27,22:50,1.099,1.825,1.196,2.082,1.432,0.569,1.040,0.963,�k�k��,6.2,��
2016/12/27,23:00,1.101,1.826,1.195,2.081,1.433,0.570,1.040,0.963,�k�k��,6.5,��
2016/12/27,23:10,1.100,1.826,1.196,2.081,1.431,0.569,1.038,0.965,�k,6.5,��
2016/12/27,23:20,1.098,1.826,1.196,2.076,1.431,0.569,1.038,0.962,�k�k��,7.8,��
2016/12/27,23:30,1.098,1.828,1.193,2.079,1.431,0.571,1.038,0.962,�k,7.8,��
2016/12/27,23:40,1.100,1.826,1.195,2.079,1.433,0.569,1.039,0.963,�k,7.3,��
2016/12/27,23:50,1.100,1.826,1.193,2.077,1.432,0.570,1.039,0.964,�k,8.4,��
